Other Surface Observations
Issued by NWS

Home | Current Version | Previous Version | Text Only | Print | Product List | Glossary On
Versions: 1 2 3 4 5 6 7 8 9 10 11 12 13 14 15 16 17 18 19 20 21 22 23 24 25 26 27 28 29 30 31 32 33 34 35 36 37 38 39 40 41 42 43 44 45 46 47 48 49 50
000
SXUS52 KTAE 240518
OSOTAE
OSOTAE
North Florida/South Alabama/Southwest Georgia Weather Roundup
National Weather Service Tallahassee Florida
1200 AM EST SAT FEB 24 2018

Note: "fair" indicates few or no clouds below 12,000 feet with no
significant weather and/or obstructions to visibility.

!FLZ017-115-028-034-025-240600
...North Florida...

CITY           SKY/WX    TMP DP  RH WIND       PRES   REMARKS
TALLAHASSEE    FAIR      60  57  89 CALM      30.25F
APALACHICOLA   FAIR      62  62 100 CALM      30.24F FOG
PERRY          MOCLDY    65  61  89 CALM      30.27F
CROSS CITY     CLOUDY    70  64  82 E5        30.31S
JACKSONVILLE   FAIR      66  64  93 SE6       30.28F
$$

!FLZ112-006-005-002-011-240600
...Florida Panhandle...

CITY           SKY/WX    TMP DP  RH WIND       PRES   REMARKS
MARIANNA       FAIR      64  62  93 CALM      30.24F
BONIFAY        NOT AVBL
PANAMA CITY NW FAIR      65  64  97 E5        30.23F
TYNDALL AFB    FOG       64  64 100 CALM      30.24F VSB 3/8
TYND DRONE APT FOG       63  63 100 CALM      30.24S VSB 7/8
DE FUNIAK SPR  FOG       64  64  99 S3        30.24F VSB 1/4
EGLIN AFB      MOCLDY    69  69  99 SE8       30.21F
DESTIN         CLOUDY    72  68  87 SE8       30.22F
HURLBURT       CLOUDY    70  69  96 SE6       30.21F
CRESTVIEW      MOCLDY    65  63  93 E3        30.23F FOG
PENSACOLA      CLOUDY    72  69  90 S8        30.21F
$$

!ALZ063-066-240600
...South Alabama...

CITY           SKY/WX    TMP DP  RH WIND       PRES   REMARKS
DOTHAN         FAIR      66  59  78 S5        30.27F
OZARK CAIRNS   FAIR      65  61  85 S5        30.24F
FT RUCKER HELI FAIR      63  61  94 CALM      30.24S
RUCKER HELI 3    N/A    N/A N/A N/A MISG        N/A
RUCKER HELI 2  FAIR      65  62  89 CALM      30.23F
FLORALA APT    FAIR      64  61  90 S5        30.25F
ANDALUSIA      FAIR      65  61  87 E3        30.22F
TROY           FAIR      65  61  87 CALM      30.24F
EUFALA         FAIR      68  65  90 CALM      30.23F
MOBILE         CLOUDY    72  68  87 S10       30.21F
$$

!GAZ120>161-240600
...Southwest and South Central Georgia...

CITY           SKY/WX    TMP DP  RH WIND       PRES   REMARKS
THOMASVILLE    FAIR     N/A N/A N/A CALM      30.28S
BAINBRIDGE     FAIR      68  63  83 CALM      30.26F
MOODY AFB      FAIR      66  64  91 SE6       30.26F
VALDOSTA       FAIR      67  63  87 SE3       30.27F
MOULTRIE       FAIR      64  59  82 CALM      30.27F
BLAKELY        FAIR      64  61  88 CALM      30.25F
ALBANY         FAIR      64  60  87 CALM      30.27F
TIFTON         FAIR      65  64  93 SE5       30.27S
FITZGERALD     FAIR      66  64  93 CALM      30.30F
CORDELE        FAIR      73  62  68 S7        30.28S
AMERICUS       FAIR      64  54  68 CALM      30.28S
HOMERVILLE     FAIR      63  61  94 CALM      30.29F
$$

!GMZ750-755-770-775-240600
...Coastal and Buoy Obs...

STATION/POSITION TIME  TEMP    WIND        PRES    VSBY  WAVE
                       AIR SEA DIR/SP/G                  HT/PER
                 (UTC) (F)     (DEG/KT/KT) (MB)    (MI)  (FT/S)
KEATON BEACH     0500   67      80/  2/  3 1025.1F
CEDAR KEY        0500   74     150/ 15/ 16 1025.1F
C TOWER          0500   67     100/  5/  5 1024.6F
APALACHICOLA BUO NOT AVBL
PANAMA CITY BUOY 0350   74 76  140/ 10/ 12 1023.6          3/ 6
MOBILE BUOY      0500      77  130/ 16/ 17 1022.5
ORANGE BCH AL BU NOT AVBL
$$




USA.gov is the U.S. government's official web portal to all federal, state and local government web resources and services.